FW9209 Weather Reports


Display with metric or nautical units.
time (UTC)temp
F
wind
direction
speed
MPH
gust
MPH
rain 1hr
in
rain 24hr
in
rain mn
in
humidity
%
barometer
mb
20260906164601 75 348 2.0 5.0 0.00 0.00 0.00 68 1021.9
20260906163102 75 18 4.0 6.0 0.00 0.00 0.00 68 1021.9
20260906161601 75 13 2.0 4.0 0.00 0.00 0.00 70 1021.9
20260906160100 74 2 2.0 5.0 0.00 0.00 0.00 73 1021.8
20260906154604 74 133 1.0 5.0 0.00 0.00 0.00 72 1021.9
20260906153104 73 13 0.0 6.0 0.00 0.00 0.00 74 1021.9
20260906151558 73 0 0.0 0.0 0.00 0.00 0.00 75 1021.7
20260906150100 72 0 0.0 0.0 0.00 0.00 0.00 77 1021.7
20260906144607 71 0 0.0 0.0 0.00 0.00 0.00 79 1021.6
20260906143059 70 0 0.0 0.0 0.00 0.00 0.00 79 1021.9
20260906141620 69 0 0.0 0.0 0.00 0.00 0.00 83 1021.8
20260906140111 67 0 0.0 0.0 0.00 0.00 0.00 87 1021.8
20260906134631 65 0 0.0 0.0 0.00 0.00 0.00 96 1021.8
20260906133111 62 0 0.0 0.0 0.00 0.00 0.00 98 1021.9
20260906131601 61 0 0.0 0.0 0.00 0.00 0.00 99 1021.9
20260906130146 60 0 0.0 0.0 0.00 0.00 0.00 99 1021.6
20260906124609 59 0 0.0 0.0 0.00 0.00 0.00 99 1021.5
20260906123104 59 0 0.0 0.0 0.00 0.00 0.00 99 1021.5
20260906121610 58 0 0.0 0.0 0.00 0.00 0.00 99 1021.5
20260906120111 58 0 0.0 0.0 0.00 0.00 0.00 99 1021.3
20260906114607 58 0 0.0 0.0 0.00 0.00 0.00 99 1021.3
20260906113108 58 0 0.0 0.0 0.00 0.00 0.00 99 1020.8
20260906111558 58 0 0.0 0.0 0.00 0.00 0.00 99 1020.6
20260906110101 58 0 0.0 0.0 0.00 0.00 0.00 99 1020.5
20260906104603 58 0 0.0 0.0 0.00 0.00 0.00 99 1020.7
20260906103101 58 0 0.0 0.0 0.00 0.00 0.00 98 1020.6
20260906101602 58 0 0.0 0.0 0.00 0.00 0.00 99 1020.6
20260906094601 58 0 0.0 0.0 0.00 0.00 0.00 98 1020.4
20260906093105 58 0 0.0 0.0 0.00 0.00 0.00 98 1020.4
20260906091620 58 0 0.0 0.0 0.00 0.00 0.00 98 1020.4
20260906090109 59 0 0.0 0.0 0.00 0.00 0.00 98 1020.4
20260906084621 59 0 0.0 0.0 0.00 0.00 0.00 98 1020.3
20260906083104 60 0 0.0 0.0 0.00 0.00 0.00 98 1020.4
20260906081603 60 0 0.0 0.0 0.00 0.00 0.00 98 1020.6
20260906074600 61 0 0.0 0.0 0.00 0.00 0.00 98 1020.3
20260906073102 61 0 0.0 0.0 0.00 0.00 0.00 98 1020.3
20260906071604 62 0 0.0 0.0 0.00 0.00 0.00 98 1020.5
20260906070121 62 0 0.0 0.0 0.00 0.00 0.00 98 1020.3
20260906064602 62 0 0.0 0.0 0.00 0.00 0.00 97 1020.2
20260906063103 62 0 0.0 0.0 0.00 0.00 0.00 97 1020.4
20260906061626 63 0 0.0 0.0 0.00 0.00 0.00 98 1020.5
20260906060116 63 0 0.0 0.0 0.00 0.00 0.00 98 1020.5
20260906054605 63 0 0.0 0.0 0.00 0.00 0.00 97 1020.5
20260906053105 63 0 0.0 0.0 0.00 0.00 0.00 97 1020.1
20260906051610 63 0 0.0 0.0 0.00 0.00 0.00 98 1020.1
20260906044603 63 0 0.0 0.0 0.00 0.00 0.00 97 1019.7
20260906043119 63 0 0.0 0.0 0.00 0.00 0.00 97 1019.6
20260906041628 63 0 0.0 0.0 0.00 0.00 0.00 97 1019.3
20260906040103 63 0 0.0 0.0 0.00 0.00 0.00 96 1019.1
20260906034605 64 0 0.0 0.0 0.00 0.00 0.00 96 1019.2
20260906033104 65 0 0.0 0.0 0.00 0.00 0.00 96 1019.1
20260906031603 65 0 0.0 0.0 0.00 0.00 0.00 96 1019.0
20260906030101 66 0 0.0 0.0 0.00 0.00 0.00 96 1018.8
20260906024601 66 0 0.0 0.0 0.00 0.00 0.00 95 1018.8
20260906023110 67 0 0.0 0.0 0.00 0.00 0.00 94 1018.7
20260906021611 67 0 0.0 0.0 0.00 0.00 0.00 94 1018.6
20260906014606 69 0 0.0 0.0 0.00 0.00 0.00 91 1018.5
20260906013104 70 0 0.0 2.0 0.00 0.00 0.00 89 1018.2
20260906011607 70 68 2.0 4.0 0.00 0.00 0.00 88 1018.1
20260906010108 71 60 0.0 3.0 0.00 0.00 0.00 86 1018.1
20260906004602 72 82 3.0 5.0 0.00 0.00 0.00 85 1018.0
20260906003104 73 89 2.0 5.0 0.00 0.00 0.00 83 1017.9
20260906001559 74 80 1.0 3.0 0.00 0.00 0.00 81 1017.6
20260906000101 75 91 1.0 5.0 0.00 0.00 0.00 80 1017.7
20260905234600 77 145 3.0 6.0 0.00 0.00 0.00 76 1017.7
20260905233117 79 0 0.0 5.0 0.00 0.00 0.00 75 1017.6
20260905231559 81 252 1.0 4.0 0.00 0.00 0.00 69 1017.7
20260905230057 81 178 1.0 2.0 0.00 0.00 0.00 70 1017.8
20260905224606 80 53 0.0 1.0 0.00 0.00 0.00 71 1017.8
20260905223101 80 89 1.0 4.0 0.00 0.00 0.00 71 1017.7
20260905221602 78 0 0.0 1.0 0.00 0.00 0.00 74 1017.8
20260905220106 78 0 0.0 0.0 0.00 0.00 0.00 78 1017.8
20260905214559 78 0 0.0 0.0 0.00 0.00 0.00 77 1018.1
20260905213110 78 0 0.0 0.0 0.00 0.00 0.00 73 1018.2
20260905211611 79 0 0.0 0.0 0.00 0.00 0.00 75 1018.1
20260905210114 79 0 0.0 3.0 0.00 0.00 0.00 74 1018.1
20260905204603 79 352 0.0 4.0 0.00 0.00 0.00 72 1018.1
20260905203102 80 0 0.0 2.0 0.00 0.00 0.00 73 1018.1
20260905201603 77 24 1.0 3.0 0.00 0.00 0.00 74 1018.4
20260905200108 78 92 1.0 3.0 0.00 0.00 0.00 72 1018.4
20260905194606 79 233 1.0 4.0 0.00 0.00 0.00 71 1018.5
20260905193104 78 0 0.0 3.0 0.00 0.00 0.00 74 1018.5
20260905191603 77 0 1.0 4.0 0.00 0.00 0.00 77 1018.5
20260905190105 77 284 2.0 5.0 0.00 0.00 0.00 78 1018.5
20260905184616 75 45 1.0 5.0 0.00 0.00 0.00 76 1018.6
20260905183119 76 181 1.0 4.0 0.00 0.00 0.00 79 1018.9
20260905181603 77 0 0.0 2.0 0.00 0.00 0.00 78 1018.7
20260905180108 75 27 0.0 3.0 0.00 0.00 0.00 81 1018.6
20260905174605 76 0 0.0 0.0 0.00 0.00 0.00 80 1018.8
20260905173106 75 5 1.0 3.0 0.00 0.00 0.00 82 1018.9
20260905171602 74 83 0.0 1.0 0.00 0.00 0.00 84 1019.0